• In Germany
  • List of Countries
  • For 7 days
  • Water Temperature
  • Satellite Maps
  • Weather Map
  • Weather Widgets
  • user-avatar
    Login

    Hourly Weather Bejrut

    Today, 22 October, Sunday

    Time Temperature Precipitation Wind Pressure Humidity
    00:00 +23°C° 0 mm 1 mps 756 mmHg 83%
    01:00 +23°C° 0 mm 1 mps 756 mmHg 83%
    02:00 +22°C° 0 mm 1 mps 756 mmHg 83%
    03:00 +22°C° 0 mm 1 mps 756 mmHg 83%
    04:00 +21°C° 0 mm 1 mps 756 mmHg 84%
    05:00 +21°C° 0 mm 1 mps 756 mmHg 85%
    06:00 +22°C° 0 mm 1 mps 756 mmHg 77%
    07:00 +24°C° 0 mm 2 mps 756 mmHg 69%
    08:00 +25°C° 0 mm 2 mps 756 mmHg 61%
    09:00 +26°C° 0 mm 2 mps 756 mmHg 54%
    10:00 +27°C° 0 mm 2 mps 756 mmHg 47%
    11:00 +28°C° 0 mm 3 mps 756 mmHg 41%
    12:00 +28°C° 0 mm 3 mps 756 mmHg 42%
    13:00 +28°C° 0 mm 3 mps 755 mmHg 43%
    14:00 +29°C° 0 mm 3 mps 755 mmHg 44%
    15:00 +28°C° 0 mm 3 mps 755 mmHg 50%
    16:00 +27°C° 0 mm 2 mps 755 mmHg 55%
    17:00 +26°C° 0 mm 2 mps 755 mmHg 61%
    18:00 +25°C° 0 mm 2 mps 755 mmHg 66%
    19:00 +24°C° 0 mm 1 mps 755 mmHg 70%
    20:00 +24°C° 0 mm 1 mps 755 mmHg 75%
    21:00 +23°C° 0 mm 1 mps 755 mmHg 76%
    22:00 +23°C° 0 mm 1 mps 755 mmHg 78%
    23:00 +20°C° 0 mm 0 mps 755 mmHg 80%

    Tomorrow, 23 October, Monday

    Time Temperature Precipitation Wind Pressure Humidity
    00:00 +20°C° 0 mm 0 mps 755 mmHg 81%
    01:00 +19°C° 0 mm 0 mps 755 mmHg 81%
    02:00 +19°C° 0 mm 0 mps 755 mmHg 82%
    03:00 +19°C° 0 mm 0 mps 755 mmHg 83%
    04:00 +18°C° 0 mm 0 mps 755 mmHg 83%
    05:00 +18°C° 0 mm 0 mps 755 mmHg 83%
    06:00 +20°C° 0 mm 0 mps 755 mmHg 73%
    07:00 +21°C° 0 mm 0 mps 755 mmHg 62%
    08:00 +23°C° 0 mm 0 mps 755 mmHg 51%
    09:00 +26°C° 0 mm 1 mps 755 mmHg 45%
    10:00 +27°C° 0 mm 1 mps 755 mmHg 38%
    11:00 +28°C° 0 mm 2 mps 755 mmHg 32%
    12:00 +29°C° 0 mm 2 mps 754 mmHg 34%
    13:00 +29°C° 0 mm 2 mps 754 mmHg 36%
    14:00 +29°C° 0 mm 2 mps 754 mmHg 37%
    15:00 +28°C° 0 mm 2 mps 754 mmHg 44%
    16:00 +27°C° 0 mm 1 mps 754 mmHg 50%
    17:00 +26°C° 0 mm 1 mps 754 mmHg 56%
    18:00 +25°C° 0 mm 1 mps 754 mmHg 61%
    19:00 +24°C° 0 mm 1 mps 754 mmHg 66%
    20:00 +22°C° 0 mm 0 mps 754 mmHg 71%
    21:00 +21°C° 0 mm 0 mps 754 mmHg 72%
    22:00 +21°C° 0 mm 0 mps 755 mmHg 74%
    23:00 +20°C° 0 mm 0 mps 755 mmHg 75%

    Day after tomorrow, 24 October, Tuesday

    Time Temperature Precipitation Wind Pressure Humidity
    00:00 +20°C° 0 mm 0 mps 754 mmHg 75%
    01:00 +20°C° 0 mm 0 mps 754 mmHg 75%
    02:00 +19°C° 0 mm 0 mps 754 mmHg 75%
    03:00 +19°C° 0 mm 0 mps 754 mmHg 77%
    04:00 +19°C° 0 mm 0 mps 754 mmHg 78%
    05:00 +18°C° 0 mm 0 mps 754 mmHg 80%
    06:00 +22°C° 0 mm 1 mps 755 mmHg 71%
    07:00 +23°C° 0 mm 1 mps 755 mmHg 62%
    08:00 +25°C° 0 mm 1 mps 755 mmHg 53%
    09:00 +26°C° 0 mm 1 mps 755 mmHg 47%
    10:00 +27°C° 0 mm 2 mps 755 mmHg 42%
    11:00 +28°C° 0 mm 2 mps 755 mmHg 36%
    12:00 +28°C° 0 mm 2 mps 755 mmHg 37%
    13:00 +28°C° 0 mm 2 mps 755 mmHg 38%
    14:00 +29°C° 0 mm 2 mps 754 mmHg 40%
    15:00 +27°C° 0 mm 2 mps 754 mmHg 46%
    16:00 +26°C° 0 mm 2 mps 755 mmHg 52%
    17:00 +25°C° 0 mm 1 mps 755 mmHg 58%
    18:00 +25°C° 0 mm 1 mps 755 mmHg 63%
    19:00 +24°C° 0 mm 1 mps 755 mmHg 69%
    20:00 +23°C° 0 mm 1 mps 756 mmHg 74%
    21:00 +23°C° 0 mm 1 mps 756 mmHg 74%
    22:00 +22°C° 0 mm 1 mps 756 mmHg 74%
    23:00 +22°C° 0 mm 1 mps 756 mmHg 74%

    25 October, Wednesday

    Time Temperature Precipitation Wind Pressure Humidity
    00:00 +22°C° 0 mm 1 mps 756 mmHg 72%
    01:00 +21°C° 0 mm 1 mps 756 mmHg 70%
    02:00 +21°C° 0 mm 1 mps 756 mmHg 69%
    03:00 +21°C° 0 mm 1 mps 756 mmHg 66%
    04:00 +20°C° 0 mm 1 mps 756 mmHg 63%
    05:00 +20°C° 0 mm 1 mps 757 mmHg 60%
    06:00 +22°C° 0 mm 1 mps 757 mmHg 50%
    07:00 +24°C° 0 mm 1 mps 757 mmHg 41%
    08:00 +26°C° 0 mm 1 mps 758 mmHg 32%
    09:00 +27°C° 0 mm 1 mps 758 mmHg 30%
    10:00 +28°C° 0 mm 2 mps 758 mmHg 28%
    11:00 +29°C° 0 mm 2 mps 758 mmHg 26%
    12:00 +29°C° 0 mm 2 mps 758 mmHg 27%
    13:00 +29°C° 0 mm 2 mps 758 mmHg 28%
    14:00 +29°C° 0 mm 2 mps 757 mmHg 29%
    15:00 +28°C° 0 mm 1 mps 757 mmHg 33%
    16:00 +27°C° 0 mm 1 mps 758 mmHg 36%
    17:00 +26°C° 0 mm 1 mps 758 mmHg 39%
    18:00 +25°C° 0 mm 1 mps 758 mmHg 42%
    19:00 +25°C° 0 mm 1 mps 759 mmHg 45%
    20:00 +24°C° 0 mm 2 mps 759 mmHg 48%
    21:00 +24°C° 0 mm 2 mps 759 mmHg 46%
    22:00 +24°C° 0 mm 2 mps 759 mmHg 45%
    23:00 +23°C° 0 mm 1 mps 759 mmHg 44%

    26 October, Thursday

    Time Temperature Precipitation Wind Pressure Humidity
    00:00 +23°C° 0 mm 2 mps 759 mmHg 43%
    01:00 +23°C° 0 mm 2 mps 759 mmHg 42%
    02:00 +23°C° 0 mm 2 mps 759 mmHg 41%
    03:00 +21°C° 0 mm 2 mps 759 mmHg 41%
    04:00 +21°C° 0 mm 2 mps 759 mmHg 41%
    05:00 +21°C° 0 mm 2 mps 759 mmHg 40%
    06:00 +24°C° 0 mm 2 mps 759 mmHg 36%
    07:00 +26°C° 0 mm 3 mps 759 mmHg 32%
    08:00 +28°C° 0 mm 3 mps 760 mmHg 28%
    09:00 +29°C° 0 mm 3 mps 759 mmHg 26%
    10:00 +30°C° 0 mm 3 mps 759 mmHg 24%
    11:00 +31°C° 0 mm 3 mps 759 mmHg 23%
    12:00 +31°C° 0 mm 3 mps 758 mmHg 23%
    13:00 +32°C° 0 mm 4 mps 758 mmHg 23%
    14:00 +32°C° 0 mm 4 mps 757 mmHg 23%
    15:00 +30°C° 0 mm 4 mps 757 mmHg 26%
    16:00 +29°C° 0 mm 4 mps 757 mmHg 29%
    17:00 +28°C° 0 mm 4 mps 757 mmHg 32%
    18:00 +27°C° 0 mm 4 mps 757 mmHg 33%
    19:00 +27°C° 0 mm 4 mps 757 mmHg 33%
    20:00 +26°C° 0 mm 4 mps 757 mmHg 33%
    21:00 +26°C° 0 mm 4 mps 757 mmHg 32%
    22:00 +26°C° 0 mm 4 mps 757 mmHg 31%
    23:00 +25°C° 0 mm 4 mps 757 mmHg 31%

    27 October, Friday

    Time Temperature Precipitation Wind Pressure Humidity
    00:00 +25°C° 0 mm 4 mps 757 mmHg 31%
    01:00 +25°C° 0 mm 4 mps 757 mmHg 31%
    02:00 +24°C° 0 mm 3 mps 756 mmHg 31%
    03:00 +24°C° 0 mm 3 mps 756 mmHg 32%
    04:00 +23°C° 0 mm 4 mps 756 mmHg 33%
    05:00 +23°C° 0 mm 4 mps 756 mmHg 34%
    06:00 +25°C° 0 mm 3 mps 756 mmHg 33%
    07:00 +27°C° 0 mm 3 mps 756 mmHg 31%
    08:00 +28°C° 0 mm 3 mps 756 mmHg 29%
    09:00 +29°C° 0 mm 3 mps 756 mmHg 28%
    10:00 +30°C° 0 mm 4 mps 756 mmHg 27%
    11:00 +32°C° 0 mm 4 mps 756 mmHg 26%
    12:00 +32°C° 0 mm 4 mps 755 mmHg 26%
    13:00 +32°C° 0 mm 4 mps 755 mmHg 26%
    14:00 +31°C° 0 mm 3 mps 754 mmHg 26%
    15:00 +30°C° 0 mm 3 mps 754 mmHg 30%
    16:00 +29°C° 0 mm 3 mps 754 mmHg 33%
    17:00 +28°C° 0 mm 2 mps 754 mmHg 37%
    18:00 +27°C° 0 mm 2 mps 754 mmHg 39%
    19:00 +26°C° 0 mm 2 mps 754 mmHg 40%
    20:00 +25°C° 0 mm 2 mps 754 mmHg 41%
    21:00 +25°C° 0 mm 2 mps 754 mmHg 41%
    22:00 +25°C° 0 mm 2 mps 754 mmHg 41%
    23:00 +24°C° 0 mm 2 mps 754 mmHg 40%
    Show more